Regional Weather Roundup
Issued by NWS

Home | Current Version | Previous Version | Text Only | Print | Product List | Glossary On
Versions: 1 2 3 4 5 6 7 8 9 10 11 12 13 14 15 16 17 18 19 20 21 22 23 24 25 26 27 28 29 30 31 32 33 34 35 36 37 38 39 40 41 42 43 44 45 46 47 48 49 50
000
ASUS44 KBMX 220410
RWRAL

ALABAMA REGIONAL WEATHER ROUNDUP
NATIONAL WEATHER SERVICE BIRMINGHAM AL
1000 PM CST TUE FEB 21 2017

NOTE: "FAIR" INDICATES FEW OR NO CLOUDS BELOW 12,000 FEET
WITH NO SIGNIFICANT WEATHER AND/OR OBSTRUCTIONS TO VISIBILITY.

THE REMARK "TC" DENOTES TEMPERATURE IN DEGREES CELSIUS.

ALZ001>011-014-016>018-020-220500-
NORTH ALABAMA

CITY           SKY/WX    TMP DP  RH WIND       PRES   REMARKS
MUSCLE SHOALS  CLOUDY    57  55  93 E5        29.92F
HUNTSVILLE     LGT RAIN  58  57  97 E6        29.93S
DECATUR        CLOUDY    56  56 100 E5        29.93F
HALEYVILLE     CLOUDY    56  56 100 CALM      29.93F
GADSDEN        LGT RAIN  58  57  97 E7        29.94F FOG
$$

ALZ012-013-022-023-030>036-040>044-220500-
WEST CENTRAL ALABAMA

CITY           SKY/WX    TMP DP  RH WIND       PRES   REMARKS
TUSCALOOSA     CLOUDY    59  59 100 NE3       29.89F
$$

ALZ015-024>027-033>036-040>044-220500-
CENTRAL ALABAMA

CITY           SKY/WX    TMP DP  RH WIND       PRES   REMARKS
BIRMINGHAM     LGT RAIN  59  58  96 SE6       29.92F
MONTGOMERY     LGT RAIN  61  56  83 E12       29.86F
SHELBY CO ARPT LGT RAIN  60  59  96 CALM      29.90S
MAXWELL AFB    CLOUDY    60  60  99 E10       29.85F
GREENVILLE     LGT RAIN  59  56  89 E6        29.83F
$$

ALZ019-021-028-029-037-038-045>048-220500-
EAST CENTRAL ALABAMA

CITY           SKY/WX    TMP DP  RH WIND       PRES   REMARKS
ANNISTON       LGT RAIN  59  58  96 NE6       29.93F
ALEXANDER CITY RAIN      58  58  99 CALM      29.91F
AUBURN         HVY RAIN  59  57  94 CALM      29.91F FOG
$$

ALZ051>064-220500-
SOUTHWEST ALABAMA

CITY           SKY/WX    TMP DP  RH WIND       PRES   REMARKS
MOBILE         MOCLDY    60  58  92 CALM      29.86S
BROOKLEY FIELD MOCLDY    63  61  93 E12       29.86F
EVERGREEN      CLOUDY    59  57  93 CALM      29.85F
$$

ALZ049-050-065>069-220500-
SOUTHEAST ALABAMA

CITY           SKY/WX    TMP DP  RH WIND       PRES   REMARKS
DOTHAN         LGT RAIN  59  59 100 E7        29.91F
OZARK          LGT RAIN  59  59 100 E6        29.87F
TROY           LGT RAIN  58  58 100 E5        29.87F
EUFAULA        LGT RAIN  61  59  93 CALM      29.88F FOG
$$



USA.gov is the U.S. government's official web portal to all federal, state and local government web resources and services.